Year,Month,Day,Hour,Minute,Value (Times are PST for temperature in C)
2005,06,27,00,00,11.20
2005,06,27,00,01,11.20
2005,06,27,00,02,11.20
2005,06,27,00,03,11.20
2005,06,27,00,04,11.20
2005,06,27,00,05,11.20
2005,06,27,00,06,11.20
2005,06,27,00,07,11.30
2005,06,27,00,08,11.30
2005,06,27,00,09,11.30
2005,06,27,00,10,11.30
2005,06,27,00,11,11.20
2005,06,27,00,12,11.20
2005,06,27,00,13,11.20
2005,06,27,00,14,11.20
2005,06,27,00,15,11.20
2005,06,27,00,16,11.20
2005,06,27,00,17,11.20
2005,06,27,00,18,11.20
2005,06,27,00,19,11.20
2005,06,27,00,20,11.20
2005,06,27,00,21,11.20
2005,06,27,00,22,11.20
2005,06,27,00,23,11.20
2005,06,27,00,24,11.10
2005,06,27,00,25,11.10
2005,06,27,00,26,11.10
2005,06,27,00,27,11.10
2005,06,27,00,28,11.10
2005,06,27,00,29,11.20
2005,06,27,00,30,11.20
2005,06,27,00,31,11.20
2005,06,27,00,32,11.20
2005,06,27,00,33,11.20
2005,06,27,00,34,11.30
2005,06,27,00,35,11.30
2005,06,27,00,36,11.30
2005,06,27,00,37,11.30
2005,06,27,00,38,11.30
2005,06,27,00,39,11.40
2005,06,27,00,40,11.40
2005,06,27,00,41,11.40
2005,06,27,00,42,11.40
2005,06,27,00,43,11.40
2005,06,27,00,44,11.40
2005,06,27,00,45,11.40
2005,06,27,00,46,11.40
2005,06,27,00,47,11.40
2005,06,27,00,48,11.40
2005,06,27,00,49,11.40
2005,06,27,00,50,11.40
2005,06,27,00,51,11.40
2005,06,27,00,52,11.40
2005,06,27,00,53,11.40
2005,06,27,00,54,11.40
2005,06,27,00,55,11.40
2005,06,27,00,56,11.40
2005,06,27,00,57,11.40
2005,06,27,00,58,11.40
2005,06,27,00,59,11.40
2005,06,27,01,00,11.40
2005,06,27,01,01,11.40
2005,06,27,01,02,11.40
2005,06,27,01,03,11.40
2005,06,27,01,04,11.40
2005,06,27,01,05,11.40
2005,06,27,01,06,11.40
2005,06,27,01,07,11.40
2005,06,27,01,08,11.40
2005,06,27,01,09,11.40
2005,06,27,01,10,11.40
2005,06,27,01,11,11.40
2005,06,27,01,12,11.40
2005,06,27,01,13,11.40
2005,06,27,01,14,11.40
2005,06,27,01,15,11.40
2005,06,27,01,16,11.40
2005,06,27,01,17,11.40
2005,06,27,01,18,11.40
2005,06,27,01,19,11.40
2005,06,27,01,20,11.40
2005,06,27,01,21,11.40
2005,06,27,01,22,11.40
2005,06,27,01,23,11.40
2005,06,27,01,24,11.40
2005,06,27,01,25,11.40
2005,06,27,01,26,11.40
2005,06,27,01,27,11.40
2005,06,27,01,28,11.40
2005,06,27,01,29,11.40
2005,06,27,01,30,11.40
2005,06,27,01,31,11.40
2005,06,27,01,32,11.40
2005,06,27,01,33,11.40
2005,06,27,01,34,11.40
2005,06,27,01,35,11.40
2005,06,27,01,36,11.40
2005,06,27,01,37,11.40
2005,06,27,01,38,11.40
2005,06,27,01,39,11.40
2005,06,27,01,40,11.40
2005,06,27,01,41,11.40
2005,06,27,01,42,11.40
2005,06,27,01,43,11.40
2005,06,27,01,44,11.40
2005,06,27,01,45,11.40
2005,06,27,01,46,11.40
2005,06,27,01,47,11.40
2005,06,27,01,48,11.40
2005,06,27,01,49,11.40
2005,06,27,01,50,11.40
2005,06,27,01,51,11.40
2005,06,27,01,52,11.40
2005,06,27,01,53,11.50
2005,06,27,01,54,11.50
2005,06,27,01,55,11.60
2005,06,27,01,56,11.60
2005,06,27,01,57,11.60
2005,06,27,01,58,11.60
2005,06,27,01,59,11.60
2005,06,27,02,00,11.60
2005,06,27,02,01,11.60
2005,06,27,02,02,11.60
2005,06,27,02,03,11.60
2005,06,27,02,04,11.60
2005,06,27,02,05,11.60
2005,06,27,02,06,11.60
2005,06,27,02,07,11.60
2005,06,27,02,08,11.60
2005,06,27,02,09,11.60
2005,06,27,02,10,11.60
2005,06,27,02,11,11.60
2005,06,27,02,12,11.60
2005,06,27,02,13,11.70
2005,06,27,02,14,11.70
2005,06,27,02,15,11.70
2005,06,27,02,16,11.70
2005,06,27,02,17,11.70
2005,06,27,02,18,11.70
2005,06,27,02,19,11.70
2005,06,27,02,20,11.70
2005,06,27,02,21,11.70
2005,06,27,02,22,11.70
2005,06,27,02,23,11.70
2005,06,27,02,24,11.70
2005,06,27,02,25,11.70
2005,06,27,02,26,11.70
2005,06,27,02,27,11.70
2005,06,27,02,28,11.70
2005,06,27,02,29,11.70
2005,06,27,02,30,11.70
2005,06,27,02,31,11.70
2005,06,27,02,32,11.70
2005,06,27,02,33,11.70
2005,06,27,02,34,11.70
2005,06,27,02,35,11.70
2005,06,27,02,36,11.70
2005,06,27,02,37,11.70
2005,06,27,02,38,11.70
2005,06,27,02,39,11.70
2005,06,27,02,40,11.70
2005,06,27,02,41,11.70
2005,06,27,02,42,11.70
2005,06,27,02,43,11.70
2005,06,27,02,44,11.70
2005,06,27,02,45,11.70
2005,06,27,02,46,11.70
2005,06,27,02,47,11.70
2005,06,27,02,48,11.70
2005,06,27,02,49,11.70
2005,06,27,02,50,11.70
2005,06,27,02,51,11.70
2005,06,27,02,52,11.70
2005,06,27,02,53,11.70
2005,06,27,02,54,11.60
2005,06,27,02,55,11.60
2005,06,27,02,56,11.60
2005,06,27,02,57,11.60
2005,06,27,02,58,11.60
2005,06,27,02,59,11.60
2005,06,27,03,00,11.60
2005,06,27,03,01,11.60
2005,06,27,03,02,11.60
2005,06,27,03,03,11.60
2005,06,27,03,04,11.60
2005,06,27,03,05,11.60
2005,06,27,03,06,11.60
2005,06,27,03,07,11.60
2005,06,27,03,08,11.60
2005,06,27,03,09,11.60
2005,06,27,03,10,11.60
2005,06,27,03,11,11.60
2005,06,27,03,12,11.60
2005,06,27,03,13,11.60
2005,06,27,03,14,11.60
2005,06,27,03,15,11.60
2005,06,27,03,16,11.60
2005,06,27,03,17,11.60
2005,06,27,03,18,11.60
2005,06,27,03,19,11.60
2005,06,27,03,20,11.60
2005,06,27,03,21,11.60
2005,06,27,03,22,11.60
2005,06,27,03,23,11.60
2005,06,27,03,24,11.60
2005,06,27,03,25,11.60
2005,06,27,03,26,11.60
2005,06,27,03,27,11.60
2005,06,27,03,28,11.60
2005,06,27,03,29,11.60
2005,06,27,03,30,11.60
2005,06,27,03,31,11.60
2005,06,27,03,32,11.60
2005,06,27,03,33,11.60
2005,06,27,03,34,11.60
2005,06,27,03,35,11.60
2005,06,27,03,36,11.60
2005,06,27,03,37,11.60
2005,06,27,03,38,11.60
2005,06,27,03,39,11.60
2005,06,27,03,40,11.60
2005,06,27,03,41,11.60
2005,06,27,03,42,11.60
2005,06,27,03,43,11.60
2005,06,27,03,44,11.60
2005,06,27,03,45,11.60
2005,06,27,03,46,11.60
2005,06,27,03,47,11.70
2005,06,27,03,48,11.70
2005,06,27,03,49,11.70
2005,06,27,03,50,11.70
2005,06,27,03,51,11.70
2005,06,27,03,52,11.70
2005,06,27,03,53,11.70
2005,06,27,03,54,11.70
2005,06,27,03,55,11.70
2005,06,27,03,56,11.70
2005,06,27,03,57,11.80
2005,06,27,03,58,11.80
2005,06,27,03,59,11.80
2005,06,27,04,00,11.80
2005,06,27,04,01,11.80
2005,06,27,04,02,11.80
2005,06,27,04,03,11.80
2005,06,27,04,04,11.80
2005,06,27,04,05,11.80
2005,06,27,04,06,11.80
2005,06,27,04,07,11.80
2005,06,27,04,08,11.80
2005,06,27,04,09,11.80
2005,06,27,04,10,11.80
2005,06,27,04,11,11.80
2005,06,27,04,12,11.80
2005,06,27,04,13,11.80
2005,06,27,04,14,11.80
2005,06,27,04,15,11.80
2005,06,27,04,16,11.90
2005,06,27,04,17,11.90
2005,06,27,04,18,11.90
2005,06,27,04,19,11.90
2005,06,27,04,20,11.90
2005,06,27,04,21,11.90
2005,06,27,04,22,11.90
2005,06,27,04,23,11.90
2005,06,27,04,24,11.90
2005,06,27,04,25,11.90
2005,06,27,04,26,11.90
2005,06,27,04,27,12.00
2005,06,27,04,28,12.00
2005,06,27,04,29,12.00
2005,06,27,04,30,12.00
2005,06,27,04,31,12.00
2005,06,27,04,32,12.00
2005,06,27,04,33,12.00
2005,06,27,04,34,12.00
2005,06,27,04,35,12.00
2005,06,27,04,36,12.10
2005,06,27,04,37,12.10
2005,06,27,04,38,12.10
2005,06,27,04,39,12.10
2005,06,27,04,40,12.10
2005,06,27,04,41,12.10
2005,06,27,04,42,12.10
2005,06,27,04,43,12.10
2005,06,27,04,44,12.10
2005,06,27,04,45,12.10
2005,06,27,04,46,12.10
2005,06,27,04,47,12.10
2005,06,27,04,48,12.10
2005,06,27,04,49,12.10
2005,06,27,04,50,12.00
2005,06,27,04,51,12.00
2005,06,27,04,52,12.00
2005,06,27,04,53,12.00
2005,06,27,04,54,11.90
2005,06,27,04,55,11.90
2005,06,27,04,56,11.90
2005,06,27,04,57,11.90
2005,06,27,04,58,11.90
2005,06,27,04,59,11.90
2005,06,27,05,00,11.90
2005,06,27,05,01,11.80
2005,06,27,05,02,11.80
2005,06,27,05,03,11.80
2005,06,27,05,04,11.80
2005,06,27,05,05,11.80
2005,06,27,05,06,11.80
2005,06,27,05,07,11.80
2005,06,27,05,08,11.80
2005,06,27,05,09,11.80
2005,06,27,05,10,11.80
2005,06,27,05,11,11.80
2005,06,27,05,12,11.80
2005,06,27,05,13,11.80
2005,06,27,05,14,11.80
2005,06,27,05,15,11.80
2005,06,27,05,16,11.80
2005,06,27,05,17,11.80
2005,06,27,05,18,11.80
2005,06,27,05,19,11.80
2005,06,27,05,20,11.80
2005,06,27,05,21,11.80
2005,06,27,05,22,11.80
2005,06,27,05,23,11.80
2005,06,27,05,24,11.80
2005,06,27,05,25,11.80
2005,06,27,05,26,11.80
2005,06,27,05,27,11.80
2005,06,27,05,28,11.80
2005,06,27,05,29,11.80
2005,06,27,05,30,11.80
2005,06,27,05,31,11.80
2005,06,27,05,32,11.80
2005,06,27,05,33,11.80
2005,06,27,05,34,11.80
2005,06,27,05,35,11.80
2005,06,27,05,36,11.80
2005,06,27,05,37,11.80
2005,06,27,05,38,11.80
2005,06,27,05,39,11.80
2005,06,27,05,40,11.80
2005,06,27,05,41,11.80
2005,06,27,05,42,11.80
2005,06,27,05,43,11.80
2005,06,27,05,44,11.80
2005,06,27,05,45,11.80
2005,06,27,05,46,11.80
2005,06,27,05,47,11.80
2005,06,27,05,48,11.80
2005,06,27,05,49,11.80
2005,06,27,05,50,11.80
2005,06,27,05,51,11.80
2005,06,27,05,52,11.80
2005,06,27,05,53,11.80
2005,06,27,05,54,11.80
2005,06,27,05,55,11.80
2005,06,27,05,56,11.80
2005,06,27,05,57,11.80
2005,06,27,05,58,11.80
2005,06,27,05,59,11.80
2005,06,27,06,00,11.80
2005,06,27,06,01,11.80
2005,06,27,06,02,11.80
2005,06,27,06,03,11.80
2005,06,27,06,04,11.80
2005,06,27,06,05,11.80
2005,06,27,06,06,11.80
2005,06,27,06,07,11.80
2005,06,27,06,08,11.80
2005,06,27,06,09,11.80
2005,06,27,06,10,11.80
2005,06,27,06,11,11.80
2005,06,27,06,12,11.80
2005,06,27,06,13,11.90
2005,06,27,06,14,11.90
2005,06,27,06,15,11.90
2005,06,27,06,16,11.90
2005,06,27,06,17,11.90
2005,06,27,06,18,11.90
2005,06,27,06,19,11.90
2005,06,27,06,20,11.90
2005,06,27,06,21,11.90
2005,06,27,06,22,12.00
2005,06,27,06,23,12.00
2005,06,27,06,24,12.00
2005,06,27,06,25,12.00
2005,06,27,06,26,12.00
2005,06,27,06,27,12.00
2005,06,27,06,28,12.00
2005,06,27,06,29,12.00
2005,06,27,06,30,12.00
2005,06,27,06,31,12.00
2005,06,27,06,32,12.00
2005,06,27,06,33,12.00
2005,06,27,06,34,12.00
2005,06,27,06,35,12.00
2005,06,27,06,36,12.00
2005,06,27,06,37,12.00
2005,06,27,06,38,12.00
2005,06,27,06,39,12.00
2005,06,27,06,40,12.00
2005,06,27,06,41,12.00
2005,06,27,06,42,12.00
2005,06,27,06,43,12.00
2005,06,27,06,44,12.00
2005,06,27,06,45,12.00
2005,06,27,06,46,12.00
2005,06,27,06,47,12.10
2005,06,27,06,48,12.10
2005,06,27,06,49,12.10
2005,06,27,06,50,12.10
2005,06,27,06,51,12.10
2005,06,27,06,52,12.10
2005,06,27,06,53,12.10
2005,06,27,06,54,12.10
2005,06,27,06,55,12.10
2005,06,27,06,56,12.10
2005,06,27,06,57,12.10
2005,06,27,06,58,12.10
2005,06,27,06,59,12.10
2005,06,27,07,00,12.10
2005,06,27,07,01,12.10
2005,06,27,07,02,12.10
2005,06,27,07,03,12.10
2005,06,27,07,04,12.20
2005,06,27,07,05,12.20
2005,06,27,07,06,12.20
2005,06,27,07,07,12.20
2005,06,27,07,08,12.20
2005,06,27,07,09,12.20
2005,06,27,07,10,12.20
2005,06,27,07,11,12.30
2005,06,27,07,12,12.30
2005,06,27,07,13,12.30
2005,06,27,07,14,12.30
2005,06,27,07,15,12.30
2005,06,27,07,16,12.30
2005,06,27,07,17,12.30
2005,06,27,07,18,12.30
2005,06,27,07,19,12.30
2005,06,27,07,20,12.30
2005,06,27,07,21,12.30
2005,06,27,07,22,12.30
2005,06,27,07,23,12.30
2005,06,27,07,24,12.40
2005,06,27,07,25,12.40
2005,06,27,07,26,12.40
2005,06,27,07,27,12.40
2005,06,27,07,28,12.40
2005,06,27,07,29,12.40
2005,06,27,07,30,12.40
2005,06,27,07,31,12.40
2005,06,27,07,32,12.40
2005,06,27,07,33,12.40
2005,06,27,07,34,12.40
2005,06,27,07,35,12.30
2005,06,27,07,36,12.30
2005,06,27,07,37,12.30
2005,06,27,07,38,12.30
2005,06,27,07,39,12.30
2005,06,27,07,40,12.30
2005,06,27,07,41,12.30
2005,06,27,07,42,12.30
2005,06,27,07,43,12.30
2005,06,27,07,44,12.30
2005,06,27,07,45,12.30
2005,06,27,07,46,12.30
2005,06,27,07,47,12.30
2005,06,27,07,48,12.30
2005,06,27,07,49,12.30
2005,06,27,07,50,12.30
2005,06,27,07,51,12.30
2005,06,27,07,52,12.30
2005,06,27,07,53,12.40
2005,06,27,07,54,12.40
2005,06,27,07,55,12.40
2005,06,27,07,56,12.40
2005,06,27,07,57,12.40
2005,06,27,07,58,12.50
2005,06,27,07,59,12.50
2005,06,27,08,00,12.50
2005,06,27,08,01,12.60
2005,06,27,08,02,12.60
2005,06,27,08,03,12.60
2005,06,27,08,04,12.70
2005,06,27,08,05,12.70
2005,06,27,08,06,12.70
2005,06,27,08,07,12.70
2005,06,27,08,08,12.80
2005,06,27,08,09,12.80
2005,06,27,08,10,12.80
2005,06,27,08,11,12.80
2005,06,27,08,12,12.90
2005,06,27,08,13,12.90
2005,06,27,08,14,12.90
2005,06,27,08,15,12.90
2005,06,27,08,16,13.00
2005,06,27,08,17,13.00
2005,06,27,08,18,13.00
2005,06,27,08,19,13.00
2005,06,27,08,20,13.00
2005,06,27,08,21,13.00
2005,06,27,08,22,13.00
2005,06,27,08,23,13.00
2005,06,27,08,24,13.00
2005,06,27,08,25,13.00
2005,06,27,08,26,13.10
2005,06,27,08,27,13.10
2005,06,27,08,28,13.10
2005,06,27,08,29,13.10
2005,06,27,08,30,13.10
2005,06,27,08,31,13.20
2005,06,27,08,32,13.20
2005,06,27,08,33,13.10
2005,06,27,08,34,13.10
2005,06,27,08,35,13.10
2005,06,27,08,36,13.10
2005,06,27,08,37,13.10
2005,06,27,08,38,13.10
2005,06,27,08,39,13.10
2005,06,27,08,40,13.20
2005,06,27,08,41,13.20
2005,06,27,08,42,13.20
2005,06,27,08,43,13.20
2005,06,27,08,44,13.20
2005,06,27,08,45,13.20
2005,06,27,08,46,13.20
2005,06,27,08,47,13.20
2005,06,27,08,48,13.20
2005,06,27,08,49,13.10
2005,06,27,08,50,13.10
2005,06,27,08,51,13.10
2005,06,27,08,52,13.10
2005,06,27,08,53,13.10
2005,06,27,08,54,13.10
2005,06,27,08,55,13.10
2005,06,27,08,56,13.10
2005,06,27,08,57,13.10
2005,06,27,08,58,13.10
2005,06,27,08,59,13.10
2005,06,27,09,00,13.10
2005,06,27,09,01,13.10
2005,06,27,09,02,13.10
2005,06,27,09,03,13.10
2005,06,27,09,04,13.00
2005,06,27,09,05,13.00
2005,06,27,09,06,13.00
2005,06,27,09,07,13.00
2005,06,27,09,08,13.00
2005,06,27,09,09,13.00
2005,06,27,09,10,13.00
2005,06,27,09,11,13.00
2005,06,27,09,12,13.00
2005,06,27,09,13,12.90
2005,06,27,09,14,12.90
2005,06,27,09,15,12.90
2005,06,27,09,16,12.90
2005,06,27,09,17,12.90
2005,06,27,09,18,12.90
2005,06,27,09,19,12.90
2005,06,27,09,20,12.90
2005,06,27,09,21,12.80
2005,06,27,09,22,12.80
2005,06,27,09,23,12.80
2005,06,27,09,24,12.80
2005,06,27,09,25,12.80
2005,06,27,09,26,12.80
2005,06,27,09,27,12.80
2005,06,27,09,28,12.80
2005,06,27,09,29,12.80
2005,06,27,09,30,12.70
2005,06,27,09,31,12.70
2005,06,27,09,32,12.70
2005,06,27,09,33,12.80
2005,06,27,09,34,12.80
2005,06,27,09,35,12.80
2005,06,27,09,36,12.80
2005,06,27,09,37,12.80
2005,06,27,09,38,12.80
2005,06,27,09,39,12.80
2005,06,27,09,40,12.80
2005,06,27,09,41,12.80
2005,06,27,09,42,12.80
2005,06,27,09,43,12.80
2005,06,27,09,44,12.80
2005,06,27,09,45,12.80
2005,06,27,09,46,12.80
2005,06,27,09,47,12.80
2005,06,27,09,48,12.80
2005,06,27,09,49,12.80
2005,06,27,09,50,12.80
2005,06,27,09,51,12.80
2005,06,27,09,52,12.80
2005,06,27,09,53,12.80
2005,06,27,09,54,12.80
2005,06,27,09,55,12.80
2005,06,27,09,56,12.80
2005,06,27,09,57,12.80
2005,06,27,09,58,12.80
2005,06,27,09,59,12.80
2005,06,27,10,00,12.90
2005,06,27,10,01,12.90
2005,06,27,10,02,12.90
2005,06,27,10,03,12.90
2005,06,27,10,04,12.90
2005,06,27,10,05,13.00
2005,06,27,10,06,13.00
2005,06,27,10,07,13.00
2005,06,27,10,08,13.00
2005,06,27,10,09,13.00
2005,06,27,10,10,13.00
2005,06,27,10,11,13.10
2005,06,27,10,12,13.10
2005,06,27,10,13,13.10
2005,06,27,10,14,13.10
2005,06,27,10,15,13.20
2005,06,27,10,16,13.20
2005,06,27,10,17,13.10
2005,06,27,10,18,13.10
2005,06,27,10,19,13.10
2005,06,27,10,20,13.10
2005,06,27,10,21,13.10
2005,06,27,10,22,13.20
2005,06,27,10,23,13.20
2005,06,27,10,24,13.30
2005,06,27,10,25,13.30
2005,06,27,10,26,13.30
2005,06,27,10,27,13.30
2005,06,27,10,28,13.30
2005,06,27,10,29,13.30
2005,06,27,10,30,13.30
2005,06,27,10,31,13.20
2005,06,27,10,32,13.20
2005,06,27,10,33,13.20
2005,06,27,10,34,13.30
2005,06,27,10,35,13.20
2005,06,27,10,36,13.20
2005,06,27,10,37,13.20
2005,06,27,10,38,13.20
2005,06,27,10,39,13.20
2005,06,27,10,40,13.20
2005,06,27,10,41,13.20
2005,06,27,10,42,13.20
2005,06,27,10,43,13.20
2005,06,27,10,44,13.20
2005,06,27,10,45,13.20
2005,06,27,10,46,13.20
2005,06,27,10,47,13.10
2005,06,27,10,48,13.10
2005,06,27,10,49,13.10
2005,06,27,10,50,13.10
2005,06,27,10,51,13.10
2005,06,27,10,52,13.10
2005,06,27,10,53,13.10
2005,06,27,10,54,13.10
2005,06,27,10,55,13.10
2005,06,27,10,56,13.10
2005,06,27,10,57,13.10
2005,06,27,10,58,13.00
2005,06,27,10,59,13.00
2005,06,27,11,00,13.00
2005,06,27,11,01,13.00
2005,06,27,11,02,12.90
2005,06,27,11,03,12.90
2005,06,27,11,04,12.90
2005,06,27,11,05,12.90
2005,06,27,11,06,12.90
2005,06,27,11,07,12.90
2005,06,27,11,08,12.90
2005,06,27,11,09,12.90
2005,06,27,11,10,13.00
2005,06,27,11,11,13.00
2005,06,27,11,12,13.00
2005,06,27,11,13,13.10
2005,06,27,11,14,13.10
2005,06,27,11,15,13.10
2005,06,27,11,16,13.10
2005,06,27,11,17,13.20
2005,06,27,11,18,13.20
2005,06,27,11,19,13.20
2005,06,27,11,20,13.20
2005,06,27,11,21,13.20
2005,06,27,11,22,13.20
2005,06,27,11,23,13.20
2005,06,27,11,24,13.20
2005,06,27,11,25,13.20
2005,06,27,11,26,13.20
2005,06,27,11,27,13.20
2005,06,27,11,28,13.20
2005,06,27,11,29,13.20
2005,06,27,11,30,13.20
2005,06,27,11,31,13.20
2005,06,27,11,32,13.30
2005,06,27,11,33,13.30
2005,06,27,11,34,13.30
2005,06,27,11,35,13.30
2005,06,27,11,36,13.30
2005,06,27,11,37,13.30
2005,06,27,11,38,13.30
2005,06,27,11,39,13.30
2005,06,27,11,40,13.30
2005,06,27,11,41,13.30
2005,06,27,11,42,13.30
2005,06,27,11,43,13.30
2005,06,27,11,44,13.30
2005,06,27,11,45,13.30
2005,06,27,11,46,13.40
2005,06,27,11,47,13.40
2005,06,27,11,48,13.40
2005,06,27,11,49,13.40
2005,06,27,11,50,13.40
2005,06,27,11,51,13.30
2005,06,27,11,52,13.30
2005,06,27,11,53,13.30
2005,06,27,11,54,13.30
2005,06,27,11,55,13.30
2005,06,27,11,56,13.30
2005,06,27,11,57,13.30
2005,06,27,11,58,13.30
2005,06,27,11,59,13.30
2005,06,27,12,00,13.30
2005,06,27,12,01,13.30
2005,06,27,12,02,13.30
2005,06,27,12,03,13.30
2005,06,27,12,04,13.30
